This is the latest recevied weather packets stored in our database for station/object IW7DVM-13. If no packets are shown the sender has not sent any weather packets the latest 10 day(s).
| Time | Temp. | Humidity | Pressure | Rain* | Wind** | Luminosity | Snow |
|---|---|---|---|---|---|---|---|
| 1788034203 | 31.67° C | 53% | 1009.3 hPa | 0 mm | - | - | - |
| 1788033903 | 31.67° C | 53% | 1009.2 hPa | 0 mm | - | - | - |
| 1788033603 | 31.67° C | 54% | 1009.2 hPa | 0 mm | - | - | - |
| 1788033303 | 31.67° C | 56% | 1009.1 hPa | 0 mm | - | - | - |
| 1788033003 | 31.67° C | 56% | 1009.1 hPa | 0 mm | - | - | - |
| 1788032703 | 32.22° C | 56% | 1009.2 hPa | 0 mm | - | - | - |
| 1788032403 | 32.78° C | 54% | 1009.3 hPa | 0 mm | - | - | - |
| 1788032103 | 33.33° C | 51% | 1009.2 hPa | 0 mm | - | - | - |
| 1788031803 | 33.89° C | 46% | 1009 hPa | 0 mm | - | - | - |
| 1788031503 | 34.44° C | 40% | 1009.1 hPa | 0 mm | - | - | - |
| 1788031203 | 34.44° C | 38% | 1008.9 hPa | 0 mm | - | - | - |
| 1788030903 | 34.44° C | 38% | 1008.8 hPa | 0 mm | - | - | - |
| 1788030603 | 34.44° C | 38% | 1008.7 hPa | 0 mm | - | - | - |
| 1788030303 | 34.44° C | 39% | 1008.7 hPa | 0 mm | - | - | - |
| 1788030003 | 33.89° C | 40% | 1008.6 hPa | 0 mm | - | - | - |
| 1788029703 | 33.89° C | 42% | 1008.6 hPa | 0 mm | - | - | - |
| 1788029403 | 33.33° C | 44% | 1008.5 hPa | 0 mm | - | - | - |
| 1788029103 | 33.33° C | 47% | 1008.5 hPa | 0 mm | - | - | - |
| 1788028803 | 33.33° C | 49% | 1008.4 hPa | 0 mm | - | - | - |
| 1788028503 | 33.33° C | 51% | 1008.3 hPa | 0 mm | - | - | - |
| 1788028203 | 33.33° C | 51% | 1008.3 hPa | 0 mm | - | - | - |
| 1788027903 | 33.33° C | 51% | 1008.6 hPa | 0 mm | - | - | - |
| 1788027603 | 32.78° C | 53% | 1008.5 hPa | 0 mm | - | - | - |
| 1788027303 | 32.78° C | 54% | 1008.4 hPa | 0 mm | - | - | - |
| 1788027003 | 32.78° C | 52% | 1008.4 hPa | 0 mm | - | - | - |
* Rain latest hour (hover to see other rain measurements)
** Current wind speed in m/s (hover to see current wind gust speed)